Dewpoint
33 34 31 32 33 34 34 32 31 31 32 33 33 33 32 33 33 34 34 41 40 41 43 43 43 45 46 47 48 49 51 54 57 61 67 66 65 67 65 65 65 65 65
32 32 30 31 31 33 35 32 31 31 32 33 31 31 31 32 32 33 34 35 40 41 42 43 42 44 46 47 48 49 50 53 56 59 64 65 65 66 65 65 65 65 65
32 32 31 30 30 32 34 33 33 32 31 31 30 31 30 31 32 32 32 34 36 40 42 42 42 43 44 46 48 49 50 51 54 58 62 64 65 65 64 64 65 64 65
33 32 31 31 32 32 32 33 32 30 29 30 30 30 30 31 31 30 31 32 33 33 38 42 41 43 43 44 47 49 50 51 53 57 61 64 65 65 65 64 64 65 65
35 32 31 32 31 32 30 33 31 29 28 28 29 28 29 30 30 30 30 31 32 34 35 39 42 42 43 44 45 48 50 52 53 57 62 65 65 65 65 64 64 64 64
33 33 32 32 32 30 30 32 31 30 29 28 29 28 29 30 31 31 31 31 33 34 36 37 37 38 46 44 45 47 50 52 53 57 61 65 65 65 64 64 64 64 64
32 32 33 32 32 30 29 30 30 29 29 30 27 27 29 30 30 31 31 33 33 33 35 37 38 40 42 45 46 47 48 51 53 57 64 65 65 64 64 64 64 64 64
32 32 32 32 31 31 30 28 30 29 29 29 26 27 25 25 30 28 32 32 32 34 35 37 38 40 41 42 44 48 47 49 53 57 62 64 64 64 63 64 64 64 63
31 31 32 30 30 29 29 29 29 29 28 29 29 25 21 23 26 27 30 31 31 34 36 37 39 39 39 40 43 46 50 48 50 56 64 64 64 64 63 64 64 63 63
31 32 31 30 30 30 29 29 30 30 30 28 29 31 28 26 21 23 30 31 32 32 32 36 37 38 37 41 44 48 49 49 49 53 64 63 62 64 63 64 64 63 63
31 31 30 29 30 30 30 30 30 31 31 30 29 27 28 28 29 29 25 27 31 31 31 32 33 39 39 40 41 46 49 48 48 50 61 62 63 63 63 64 64 63 63
30 30 30 30 30 31 30 32 33 34 35 34 33 30 31 27 29 30 27 28 28 29 31 31 32 36 39 38 42 48 49 48 48 48 54 62 62 63 63 64 64 63 63
28 29 29 31 31 33 34 35 35 34 34 34 34 33 33 32 28 30 28 26 28 29 30 32 33 35 37 40 42 49 49 48 48 50 55 59 60 61 62 63 63 63 63
29 31 31 32 32 32 34 34 34 35 35 32 32 32 33 33 32 31 29 27 27 29 29 28 31 31 33 37 42 49 47 47 49 49 52 57 59 59 60 60 61 61 61
29 31 31 31 30 31 33 34 32 32 33 32 33 32 32 33 33 32 32 30 27 24 27 27 27 31 34 36 41 46 46 48 48 47 49 54 56 57 58 58 59 59 59
29 31 30 32 33 33 33 33 32 32 31 31 31 31 32 33 33 33 33 31 29 26 24 29 28 30 34 39 42 46 46 48 47 47 48 51 54 55 55 55 56 56 57
31 30 32 33 32 32 32 31 31 31 31 31 31 30 31 32 31 32 32 32 31 29 26 29 34 35 32 33 45 46 47 47 48 47 48 49 51 52 52 52 53 53 54
31 32 34 33 32 32 32 31 30 32 31 30 31 30 29 32 30 30 30 30 30 31 29 27 30 33 36 37 45 47 48 48 49 48 48 49 51 50 50 50 50 50 51
31 34 34 33 32 32 31 32 32 32 31 30 31 30 29 31 29 30 30 30 30 31 30 29 30 35 38 42 46 48 47 48 50 48 48 49 50 49 49 49 49 49 49
34 33 33 32 32 32 32 32 32 32 31 31 31 30 30 29 29 30 30 30 30 30 31 30 31 33 39 44 47 45 45 48 50 51 51 52 51 49 48 48 48 48 48
31 33 32 32 32 32 32 32 32 32 31 32 32 31 31 31 30 29 29 30 31 30 31 31 31 35 39 45 44 45 45 48 51 53 53 54 55 54 52 49 49 48 48
29 30 31 31 31 32 34 35 33 31 32 32 32 32 32 34 32 30 32 32 32 30 30 31 32 35 41 43 44 43 47 49 50 55 54 50 49 46 52 55 47 47 47
31 30 31 31 31 32 34 35 34 32 32 32 33 33 33 33 32 31 30 33 33 33 31 33 33 35 42 43 44 45 49 50 47 48 47 42 44 40 42 44 45 46 46
30 30 30 31 31 32 34 34 34 32 32 33 34 33 32 32 31 29 31 31 32 34 34 36 36 40 43 45 46 51 48 48 49 49 47 39 40 37 40 40 41 43 43
30 29 31 31 31 31 34 34 33 33 33 33 35 35 33 32 32 33 32 31 32 33 36 37 38 39 39 42 48 50 48 47 44 44 45 41 39 36 36 35 39 40 40
25 24 26 31 32 32 33 34 34 33 33 34 35 36 35 33 34 34 33 32 32 33 35 36 38 41 43 45 42 49 49 45 43 43 43 40 39 38 34 35 34 37 38
Lifted_Index
15 16 16 17 18 17 17 17 18 18 19 19 19 19 20 19 19 19 18 18 17 15 14 14 14 13 13 12 11 10 8 3 -1 -2 -2 -2 -2 -2 -2 -1 -1 -0 -0
15 15 16 17 18 18 18 18 18 18 18 19 19 19 20 20 19 19 19 18 17 16 15 14 14 13 13 12 11 11 8 3 -1 -2 -2 -2 -2 -2 -2 -1 -1 -0 -0
14 14 15 16 17 18 18 18 18 17 18 18 19 19 19 19 19 19 19 18 17 16 15 15 14 14 13 13 12 11 9 4 0 -2 -2 -2 -2 -2 -1 -1 -1 -0 -0
14 14 14 15 16 17 17 17 17 17 17 17 18 18 18 18 18 18 18 18 17 17 16 15 15 14 14 13 13 12 9 5 1 -1 -2 -2 -2 -2 -1 -1 -1 -0 0
14 14 14 15 15 16 17 17 17 16 17 17 18 18 18 17 17 17 17 17 17 17 16 16 15 14 14 14 13 12 10 6 2 -1 -1 -2 -2 -2 -1 -1 -0 0 1
14 14 14 14 15 15 16 16 17 17 17 17 17 17 17 17 16 16 17 17 17 17 16 16 16 15 14 14 13 13 11 7 2 -0 -1 -2 -2 -2 -1 -1 -0 0 1
14 14 14 14 14 15 15 16 16 16 16 17 17 17 16 16 16 16 16 16 17 17 16 16 16 15 15 14 14 13 11 7 3 0 -1 -1 -2 -1 -1 -0 0 1 1
13 14 14 14 14 14 15 15 16 16 16 16 16 16 15 14 15 15 15 15 16 16 16 16 16 16 15 15 14 13 11 8 4 1 -1 -1 -1 -1 -0 0 0 1 0
13 13 14 14 14 14 15 15 15 15 15 15 15 15 14 14 14 14 14 14 15 15 15 15 15 15 15 15 15 14 12 8 4 1 -0 -1 -1 -0 0 0 0 0 -0
14 14 14 14 14 15 14 14 14 14 14 14 14 15 14 14 13 13 13 14 14 14 14 14 14 15 15 15 14 13 12 8 4 1 0 0 0 0 0 0 0 0 -1
14 15 15 15 15 15 15 14 14 14 14 14 14 14 14 14 13 12 12 13 13 13 13 13 14 14 15 15 14 13 11 7 3 1 1 1 1 1 0 0 0 -0 -1
15 15 15 15 15 15 15 14 14 14 13 13 13 13 14 14 13 12 12 12 12 13 13 13 13 14 14 14 14 13 10 5 2 1 1 1 1 0 0 -0 -0 -1 -1
16 15 15 15 15 15 15 14 14 14 13 13 12 13 13 14 13 13 12 11 11 12 13 13 13 14 14 14 13 12 10 6 2 2 1 1 1 0 0 -0 -1 -1 -1
16 16 16 16 16 16 15 15 14 14 13 12 12 12 13 14 14 14 13 11 10 11 12 12 13 13 14 14 13 12 10 7 3 2 2 2 1 0 0 -0 -0 -0 -0
16 16 16 16 16 16 16 15 14 13 12 12 12 12 13 14 14 14 13 12 11 10 11 12 13 13 13 13 12 11 11 8 4 2 2 1 1 0 -0 -0 -0 0 0
16 16 16 16 17 17 17 16 14 13 12 12 12 12 12 13 14 14 14 13 12 11 10 11 12 13 13 13 12 11 11 8 4 2 1 1 0 -0 -0 0 0 0 1
16 16 17 17 17 17 17 16 14 13 12 11 11 11 12 13 14 14 14 14 13 12 11 11 12 12 12 12 11 11 10 9 5 2 1 0 -0 0 0 0 0 1 1
16 17 17 18 18 18 17 16 14 12 11 10 10 11 12 13 14 15 15 14 14 13 11 11 12 12 12 11 11 10 10 9 5 2 1 0 -0 0 0 0 0 1 2
17 17 18 18 18 18 17 15 13 11 10 10 10 11 12 13 14 15 15 14 14 13 12 11 11 11 11 10 10 10 10 9 5 2 0 0 -0 0 0 0 1 2 2
17 17 18 19 19 19 17 15 12 10 9 9 9 10 12 13 14 14 14 14 13 12 11 11 11 11 10 9 9 9 10 8 4 1 0 0 0 0 0 1 1 2 3
16 17 19 19 19 19 17 14 11 8 8 8 9 10 11 12 13 14 14 13 13 12 10 10 10 10 9 8 9 9 9 6 3 1 1 0 0 0 1 1 2 2 3
15 17 18 19 19 18 17 14 10 7 6 7 9 10 11 12 13 13 13 13 13 11 10 9 9 8 8 7 8 9 7 4 2 2 1 1 1 1 1 1 2 2 2
14 16 17 18 18 18 17 14 10 7 6 7 9 10 11 13 13 13 13 13 12 11 9 8 8 7 7 7 8 8 6 3 2 2 2 1 1 1 1 2 2 2 2
13 15 17 17 17 17 17 15 11 8 6 7 9 10 11 12 13 13 12 12 11 10 8 7 7 7 6 7 7 6 5 3 3 2 2 2 2 1 2 2 2 2 3
13 14 16 17 17 17 16 14 12 8 6 6 8 9 10 11 11 11 10 9 8 7 7 7 7 7 7 7 6 5 4 3 3 3 3 3 2 2 2 2 2 3 3
12 14 16 17 17 17 16 14 12 9 6 5 7 8 9 10 10 10 8 7 6 6 7 7 8 7 7 6 5 5 4 3 3 3 3 3 2 3 3 2 2 2 3